Location: *
(51.2167°N, 10.0667°E)
Time: 20:18:51
(UTC+00:00)

USA 215 - Pass Details

Date: 12 December 2019
Orbit: 1101 x 1107 km, 123.0° (Epoch: 28 January)

Event Time Altitude Azimuth Distance (km) Brightness Sun altitude
Exits shadow 19:23:37 45° 315° (NW) 1,464 4.0 -38.0°
Drops below altitude 10° 19:28:26 10° 283° (WNW) 2,963 6.2 -38.7°
Sets 19:30:57 0° 279° (W) 3,922 7.1 -39.1°
